Terminal Aerodrome Forecast
Issued by NWS Houston/Galveston TX

Home | Current Version | Previous Version | Text Only | Print | Product List | Glossary On
Versions: 1 2 3 4 5 6 7 8 9 10 11 12 13 14 15 16 17 18 19 20 21 22 23 24 25 26 27 28 29 30 31 32 33 34 35 36 37 38 39 40 41 42 43 44 45 46 47 48 49 50
000
FTUS44 KHGX 181728
TAFHOU
TAF
KHOU 181728Z 1818/1918 12005KT P6SM SCT030
      TEMPO 1819/1823 6SM FU
     FM190900 09003KT 6SM MIFG FEW035
     FM191200 06001KT P6SM SCT035
     FM191600 09008KT P6SM SCT040 SCT120=

USA.gov is the U.S. government's official web portal to all federal, state and local government web resources and services.